This is the latest recevied weather packets stored in our database for station/object K4CRS-13. If no packets are shown the sender has not sent any weather packets the latest 10 day(s).
| Time | Temp. | Humidity | Pressure | Rain* | Wind** | Luminosity | Snow |
|---|---|---|---|---|---|---|---|
| 1787854051 | 28.89° C | 73% | 1050.7 hPa | 0 mm | - | 700 W/m² | - |
| 1787853751 | 28.89° C | 73% | 1050.9 hPa | 0 mm | - | 700 W/m² | - |
| 1787853451 | 28.89° C | 73% | 1050.7 hPa | 0 mm | - | 310 W/m² | - |
| 1787853150 | 28.89° C | 74% | 1050.9 hPa | 0 mm | - | 748 W/m² | - |
| 1787852845 | 30° C | 73% | 1050.8 hPa | 0 mm | - | 806 W/m² | - |
| 1787852544 | 28.89° C | 73% | 1051.1 hPa | 0 mm | - | 804 W/m² | - |
| 1787852238 | 28.33° C | 74% | 1051.1 hPa | 0 mm | - | 766 W/m² | - |
| 1787851933 | 27.78° C | 75% | 1051.3 hPa | 0 mm | - | 776 W/m² | - |
| 1787851632 | 27.78° C | 75% | 1051.4 hPa | 0 mm | - | 818 W/m² | - |
| 1787851327 | 28.33° C | 77% | 1051.5 hPa | 0 mm | - | 279 W/m² | - |
| 1787851023 | 27.78° C | 75% | 1051.6 hPa | 0 mm | - | 797 W/m² | - |
| 1787850718 | 27.22° C | 77% | 1051.5 hPa | 0 mm | - | 723 W/m² | - |
| 1787850413 | 27.22° C | 78% | 1051.3 hPa | 0 mm | - | 897 W/m² | - |
| 1787850109 | 26.67° C | 79% | 1051.5 hPa | 0 mm | - | 849 W/m² | - |
| 1787849808 | 26.67° C | 80% | 1051.6 hPa | 0 mm | - | 338 W/m² | - |
| 1787849503 | 26.67° C | 80% | 1051.4 hPa | 0 mm | - | 509 W/m² | - |
| 1787849202 | 26.67° C | 81% | 1051.8 hPa | 0 mm | - | 472 W/m² | - |
| 1787848901 | 26.11° C | 82% | 1051.7 hPa | 0 mm | - | 370 W/m² | - |
| 1787848596 | 26.11° C | 83% | 1051.8 hPa | 0 mm | - | 310 W/m² | - |
| 1787848295 | 26.67° C | 82% | 1051.7 hPa | 0 mm | - | 236 W/m² | - |
| 1787847991 | 26.67° C | 80% | 1051.8 hPa | 0 mm | - | 314 W/m² | - |
| 1787847690 | 27.22° C | 78% | 1051.6 hPa | 0 mm | - | 339 W/m² | - |
| 1787847385 | 26.67° C | 80% | 1051.8 hPa | 0 mm | - | 843 W/m² | - |
| 1787847081 | 25.56° C | 84% | 1051.8 hPa | 0 mm | - | 753 W/m² | - |
| 1787846777 | 25° C | 88% | 1051.9 hPa | 0 mm | - | 754 W/m² | - |
* Rain latest hour (hover to see other rain measurements)
** Current wind speed in m/s (hover to see current wind gust speed)